Zurück zum Katalog

CZ-4 DEB

AktivSSO
NORAD 26306·DEBRIS·🇨🇳 China

Gestartet Oct 14, 1999 von Taiyuan Satellite Launch Center

Loading…

Nächste Überflüge (nächste 24 Stunden)

TLE

AktuellSource: Space-Track

Epoche: Sep 14, 2026, 09:17 UTC

1 26306U 99057GP  26257.38699253  .00000148  00000-0  61681-4 0  9993
2 26306  98.7357 307.0963 0094670 301.0942  69.0824 14.38237875386094

Verfolge CZ-4 DEB in Echtzeit mit AllMySat

Download on the App Store